Location: Baia Mare
(47.6567°N, 23.5850°E)
Time: 04:19:44
(UTC+03:00)

ISS - Pass Details

Date: 08 September 2018
Orbit: 403 x 408 km, 51.6° (Epoch: 25 September)

Event Time Altitude Azimuth Distance (km) Brightness Sun altitude
Exits shadow 05:35:05 17° 291° (WNW) 1,120 -2.0 -13.4°
Maximum altitude 05:37:16 40° 355° (N) 616 -2.8 -13.0°
Drops below altitude 10° 05:40:23 10° 67° (ENE) 1,459 0.5 -12.6°
Sets 05:42:33 0° 76° (ENE) 2,322 2.0 -12.2°
